Regional Weather Roundup
Issued by NWS Grand Forks, ND

Home | Current Version | Previous Version | Text Only | Print | Product List | Glossary Off
Versions: 1 2 3 4 5 6 7 8 9 10 11 12 13 14 15 16 17 18 19 20 21 22 23 24 25 26 27 28 29 30 31 32 33 34 35 36 37 38 39 40 41 42 43 44 45 46 47 48 49 50

000
ASUS43 KFGF 261931
RWRFGF
PRAIRIE TO PINES  WEATHER ROUNDUP
NATIONAL WEATHER SERVICE EASTERN NORTH DAKOTA/GRAND FORKS ND
200 PM CDT THU MAY 26 2016

 **SATELLITE DATA USED TO AUGMENT SKY COVER AT AUTOMATED STATIONS**
 *****  WEATHER ACROSS EASTERN NORTH DAKOTA  *****

CITY           SKY/WX    TMP DP  RH WIND       PRES   REMARKS
GRAND FORKS    CLOUDY    66  56  70 W12       29.75R
GRAND FRKS AFB CLOUDY    67  55  66 W9        29.75S
GRAND FRKS NWS   N/A     66 N/A N/A W13         N/A
DEVILS LAKE    CLOUDY    64  55  72 W14       29.78R
FARGO          PTSUNNY   71  56  58 W14       29.79R
WAHPETON ARPT  FAIR      73  45  35 W17G24    29.80S
$$

 ***** WEATHER ACROSS CENTRAL AND WESTERN NORTH DAKOTA  *****

CITY           SKY/WX    TMP DP  RH WIND       PRES   REMARKS
BISMARCK       PTSUNNY   73  49  42 SW7       29.80S
MINOT          FAIR      67  55  65 VRB3      29.79S
JAMESTOWN      FAIR      70  52  52 W15G25    29.79S
MINOT AFB      DRIZZLE   60  54  81 NE6       29.79S
GARRISON         N/A     66  48  52 W6        29.79S
WILLISTON      CLOUDY    65  49  56 NW7       29.80F
DICKINSON      PTSUNNY   60  44  55 W13       29.82R
HETTINGER      PTSUNNY   65  43  44 W16G23    29.86R
$$

 *****  OTHER AIRPORT OBSERVATIONS IN OUR AREA  *****

CITY           SKY/WX    TMP DP  RH WIND       PRES   REMARKS
WALHALLA       FAIR      63  63 100 NW12G18   29.72R
GRAFTON AIRPOR MOCLDY    66  57  72 W16       29.74S
VALLEY CITY AR FAIR      72  55  56 W17G24    29.82R
CANDO          CLOUDY    63  54  72 N12G21    29.79R
CAVALIER APRT  CLOUDY    63  55  77 W12       29.72R
GWINNER        FAIR      73  54  49 W20G25    29.81F
SHEYENNE NWR     N/A     74  51  44 W14       29.95S
ROLLA          CLOUDY    59  52  77 NW18      29.78R
 ***** THE ABOVE OBSERVATIONS ARE NON NWS ARE NOT QUALITY
       CONTROLLED AND MAY MIS-REPORT RAIN FOR SNOW...
$$

  *****  WEATHER ACROSS NORTHERN MINNESOTA  *****

CITY           SKY/WX    TMP DP  RH WIND       PRES   REMARKS
FLAG ISLAND    CLOUDY    63  55  77 SW10      29.71R
WARROAD        PTSUNNY   66  59  77 SW14G20   29.72R
ROSEAU         FAIR      68  57  68 SW17G23   29.72R
HALLOCK        PTSUNNY   66  55  68 W15G21    29.71R
THF RVR FALLS  PTSUNNY   66  55  68 SW13      29.76S
BAUDETTE       PTSUNNY   69  53  56 SW14G21   29.72R
WASKISH        FAIR      70  57  64 SW10      29.76R
CROOKSTON      FAIR      70  57  64 W16       29.76S
STEPHEN NDAWN    N/A     66  57  72 SW12        N/A
GREENBUSH NDAW   N/A     68  57  68 W13         N/A
$$
  *****  WEATHER ACROSS CENTRAL AND WEST MINNESOTA  *****

CITY           SKY/WX    TMP DP  RH WIND       PRES   REMARKS
FOSSTON        PTSUNNY   66  57  72 SW15      29.77S
BEMIDJI        PTSUNNY   71  54  54 W12       29.76S
PARK RAPIDS    FAIR      71  53  52 W16G23    29.79R
ELBOW LAKE     FAIR      75  48  37 NW18G24   29.82F
WADENA         FAIR      70  54  56 SW14G21   29.80F
DETROIT LAKES  FAIR      66  55  68 W8        29.82R
MOORHEAD       FAIR      68  57  68 W15       29.80S
FERGUS FALLS   FAIR      73  54  49 W14G30    29.78S
MORRIS MN      FAIR      77  46  33 W18G28    29.81S
STAPLES        FAIR      73  52  46 W15       29.81S
$$
  *****  WEATHER ELSEWHERE ACROSS MINNESOTA  *****

CITY           SKY/WX    TMP DP  RH WIND       PRES   REMARKS
DULUTH         FAIR      62  55  77 E5        29.81S
INTRNTL FALLS  PTSUNNY   70  57  63 N3        29.74S
ELY            FAIR      70  55  60 SW8       29.78R
CLOQUET        FAIR      63  54  72 E3        29.80S
WHEATON        FAIR      79  50  36 W14G22    29.82F
BRAINERD       FAIR      75  52  44 W16       29.78F
HIBBING        CLOUDY    62  56  80 VRB3      29.79R
ALEXANDRIA     FAIR      75  47  36 W20G25    29.84R
SAINT CLOUD    FAIR      77  53  43 W13       29.81R
MINNEAPOLIS    FAIR      79  53  40 W15       29.82R
$$

  *****  WEATHER ACROSS SOUTH DAKOTA  *****

CITY           SKY/WX    TMP DP  RH WIND       PRES   REMARKS
SIOUX FALLS    PTSUNNY   72  52  49 SW6       29.89R
BROOKINGS      FAIR      72  51  47 NW9       29.87F
WATERTOWN      FAIR      73  49  42 W15G22    29.87S
HURON          CLOUDY    72  53  51 SW5       29.86F
SISSETON         N/A     77  46  33 NW18G28   29.81R
ABERDEEN       PTSUNNY   74  51  44 SW12      29.84F
MITCHELL       CLOUDY    73  53  49 S7        29.87S
PIERRE         MOSUNNY   73  54  51 S13       29.83F
MOBRIDGE       SUNNY     73  51  46 SW9       29.81S
RAPID CITY     PTSUNNY   67  45  45 NE9       29.89F
$$

  *****  SOME WEATHER IN NEARBY STATES *****

CITY           SKY/WX    TMP DP  RH WIND       PRES   REMARKS
GLASGOW MT     RAIN      56  51  84 NW16      29.83S
GREAT FALLS MT CLOUDY    55  49  80 SW7       29.95F
CHEYENNE WY    CLOUDY    59  37  44 SE17G31   29.95F
SCOTTSBLUFF NE CLOUDY    70  40  33 CALM      29.90F
OMAHA NE       FAIR      84  59  42 E12       29.82F
DES MOINES IA  FAIR      82  64  54 S8        29.86F
DAVENPORT IA   FAIR      83  66  56 SW15      29.88F
CHICAGO IL     PTSUNNY   79  63  57 SW13      29.88S
EAU CLAIRE WI  FAIR      77  60  55 SW13      29.81S
LA CROSSE WI   FAIR      80  59  48 SW10      29.83S
$$

  *****  SOME NATIONAL WEATHER *****

CITY           SKY/WX    TMP DP  RH WIND       PRES   REMARKS
LA GUARDIA NY  PTSUNNY   90  61  37 S15       30.04S HX  90
RALEIGH NC     FAIR      85  63  47 SW9       30.13F
ATLANTA GA     FAIR      85  59  41 CALM      30.13F
NEW ORLEANS LA FAIR      89  66  46 S16       30.05F HX  91
OKLAHOMA CITY  PTSUNNY   83  73  72 S15       29.80S
ALBUQUERQUE NM MOSUNNY   72  11   9 SW17G25   29.90F
SALT LAKE CITY MOSUNNY   67  40  37 W12G22    29.97F
LOS ANGELES CA MOSUNNY   66  52  60 SW13      30.06S
BOISE ID       SUNNY     70  41  34 W15       30.00F
SEATTLE WA     DRIZZLE   53  47  79 W6        30.21R
$$

*** WEATHER ACROSS MANITOBA...SASKATCHEWAN AND ONTARIO ***
                ***ONTARIO***

CITY           SKY/WX    TMP DP  RH WIND       PRES   REMARKS
GERALDTON      CLOUDY    63  48  59 SE9G18    29.82F
THUNDER BAY    CLOUDY    55  54  94 S3        29.83R
SIOUX LOOKOUT  LGT RAIN  61  57  88 SE8       29.76S
TORONTO        PTSUNNY   72  64  78 E8        29.98F
BIG TROUT LK   SUNNY     68  48  49 SE9       29.81F
PICKLE LAKE    CLOUDY    68  50  52 S9        29.78F
DRYDEN         CLOUDY    59  54  82 S7        29.75S
KENORA         CLOUDY    63  54  72 SW13      29.72S
$$
                *** MANITOBA***

CITY           SKY/WX    TMP DP  RH WIND       PRES   REMARKS
BRANDON        LGT RAIN  59  55  88 NW13      29.77S
DAUPHIN        CLOUDY    64  54  68 N9        29.77S
ISLAND LAKE    PTSUNNY   73  48  40 NE10      29.75F
PILOT MOUND      N/A     57  54  88 NW13G20     N/A
THE PAS        MOSUNNY   73  45  35 N7        29.81S
THOMPSON       MOSUNNY   59  46  63 N18       29.88R
WINNIPEG       CLOUDY    63  57  82 CALM      29.65R
LYNN LAKE      SUNNY     52  36  54 NE12G22   29.98R
CHURCHILL      DRIZZLE   32  32 100 NE21      30.04R FOG     WCI  20
GILLAM         PTSUNNY   59  48  67 N16       29.87R
$$
                ***SASKATCHEWAN***

CITY           SKY/WX    TMP DP  RH WIND       PRES   REMARKS
ESTEVAN        LGT RAIN  55  54  94 NE12      29.83R FOG
KINDERSLEY     PTSUNNY   66  43  42 VRB6      29.89F
LLOYDMINSTER   PTSUNNY   70  41  35 SE13      29.86F
PRINCE ALBERT  MOSUNNY   73  46  38 SW6       29.84F
REGINA         LGT RAIN  59  54  82 E10       29.89R
YORKTON        MOSUNNY   68  50  52 NE6       29.81F
N. BATTLEFORD  PTSUNNY   70  43  37 VRB5      29.89F
LA RONGE       MOSUNNY   63  50  63 NE12      29.89S
SASKATOON      PTSUNNY   70  50  49 S8        29.89S
SWIFT CURRENT  PTSUNNY   59  48  67 N10       29.90S
$$
NOTE: THESE ARE AUTOMATED STATIONS WITH LIMITED QUALITY CONTROL
      "FAIR" INDICATES FEW OR NO CLOUDS BELOW 12,000 FEET WITH NO
      SIGNIFICANT WEATHER AND/OR OBSTRUCTIONS TO VISIBILITY.
      SKY/WX - SKY CONDITION AND SIGNIFICANT WEATHER.
      TMP - AIR TEMPERATURE.    DP   - DEWPOINT TEMPERATURE.
      RH  - RELATIVE HUMIDITY.  PRES - PRESSURE.
      HX  - HEAT INDEX.         WCI  - WIND CHILL INDEX.
$



USA.gov is the U.S. government's official web portal to all federal, state and local government web resources and services.